Year,Month,Day,Hour,Minute,Value (Times are PST for windspeed in km/hr)
2007,07,13,00,00,4.60
2007,07,13,00,01,3.90
2007,07,13,00,02,3.50
2007,07,13,00,03,1.00
2007,07,13,00,04,1.60
2007,07,13,00,05,0.80
2007,07,13,00,06,1.80
2007,07,13,00,07,0.50
2007,07,13,00,08,2.40
2007,07,13,00,09,1.10
2007,07,13,00,10,1.60
2007,07,13,00,11,0.80
2007,07,13,00,12,0.00
2007,07,13,00,13,0.10
2007,07,13,00,14,0.00
2007,07,13,00,15,0.00
2007,07,13,00,16,0.00
2007,07,13,00,17,0.40
2007,07,13,00,18,1.50
2007,07,13,00,19,0.60
2007,07,13,00,20,0.10
2007,07,13,00,21,0.50
2007,07,13,00,22,0.00
2007,07,13,00,23,1.40
2007,07,13,00,24,2.50
2007,07,13,00,25,2.10
2007,07,13,00,26,0.00
2007,07,13,00,27,0.20
2007,07,13,00,28,0.60
2007,07,13,00,29,1.40
2007,07,13,00,30,0.40
2007,07,13,00,31,2.90
2007,07,13,00,32,1.90
2007,07,13,00,33,1.40
2007,07,13,00,34,1.00
2007,07,13,00,35,0.50
2007,07,13,00,36,1.40
2007,07,13,00,37,0.60
2007,07,13,00,38,0.10
2007,07,13,00,39,0.00
2007,07,13,00,40,0.90
2007,07,13,00,41,0.60
2007,07,13,00,42,0.20
2007,07,13,00,43,0.00
2007,07,13,00,44,1.50
2007,07,13,00,45,5.00
2007,07,13,00,46,2.50
2007,07,13,00,47,1.10
2007,07,13,00,48,0.00
2007,07,13,00,49,0.00
2007,07,13,00,50,0.00
2007,07,13,00,51,0.00
2007,07,13,00,52,0.10
2007,07,13,00,53,0.20
2007,07,13,00,54,1.10
2007,07,13,00,55,0.20
2007,07,13,00,56,0.00
2007,07,13,00,57,0.00
2007,07,13,00,58,0.30
2007,07,13,00,59,0.00
2007,07,13,01,00,0.20
2007,07,13,01,01,0.20
2007,07,13,01,02,0.00
2007,07,13,01,03,0.00
2007,07,13,01,04,0.00
2007,07,13,01,05,0.00
2007,07,13,01,06,0.00
2007,07,13,01,07,0.00
2007,07,13,01,08,0.00
2007,07,13,01,09,0.30
2007,07,13,01,10,0.30
2007,07,13,01,11,0.40
2007,07,13,01,12,0.00
2007,07,13,01,13,0.00
2007,07,13,01,14,0.00
2007,07,13,01,15,0.00
2007,07,13,01,16,0.10
2007,07,13,01,17,0.50
2007,07,13,01,18,0.00
2007,07,13,01,19,2.00
2007,07,13,01,20,1.90
2007,07,13,01,21,0.10
2007,07,13,01,22,0.00
2007,07,13,01,23,1.50
2007,07,13,01,24,1.40
2007,07,13,01,25,1.40
2007,07,13,01,26,0.50
2007,07,13,01,27,0.20
2007,07,13,01,28,2.60
2007,07,13,01,29,0.80
2007,07,13,01,30,0.20
2007,07,13,01,31,0.20
2007,07,13,01,32,0.00
2007,07,13,01,33,0.00
2007,07,13,01,34,0.00
2007,07,13,01,35,0.00
2007,07,13,01,36,0.00
2007,07,13,01,37,0.00
2007,07,13,01,38,0.00
2007,07,13,01,39,0.40
2007,07,13,01,40,0.40
2007,07,13,01,41,0.00
2007,07,13,01,42,0.40
2007,07,13,01,43,1.00
2007,07,13,01,44,0.30
2007,07,13,01,45,0.10
2007,07,13,01,46,0.60
2007,07,13,01,47,0.40
2007,07,13,01,48,0.00
2007,07,13,01,49,0.00
2007,07,13,01,50,0.00
2007,07,13,01,51,0.00
2007,07,13,01,52,0.00
2007,07,13,01,53,0.00
2007,07,13,01,54,0.70
2007,07,13,01,55,0.90
2007,07,13,01,56,1.50
2007,07,13,01,57,1.00
2007,07,13,01,58,1.00
2007,07,13,01,59,0.40
2007,07,13,02,00,0.60
2007,07,13,02,01,0.60
2007,07,13,02,02,1.20
2007,07,13,02,03,0.50
2007,07,13,02,04,0.00
2007,07,13,02,05,2.00
2007,07,13,02,06,1.00
2007,07,13,02,07,0.90
2007,07,13,02,08,0.00
2007,07,13,02,09,0.30
2007,07,13,02,10,0.10
2007,07,13,02,11,0.00
2007,07,13,02,12,0.00
2007,07,13,02,13,0.00
2007,07,13,02,14,2.00
2007,07,13,02,15,1.90
2007,07,13,02,16,1.20
2007,07,13,02,17,0.60
2007,07,13,02,18,1.00
2007,07,13,02,19,1.00
2007,07,13,02,20,2.30
2007,07,13,02,21,0.40
2007,07,13,02,22,0.90
2007,07,13,02,23,0.00
2007,07,13,02,24,0.00
2007,07,13,02,25,0.00
2007,07,13,02,26,0.00
2007,07,13,02,27,0.00
2007,07,13,02,28,0.00
2007,07,13,02,29,0.00
2007,07,13,02,30,0.00
2007,07,13,02,31,0.00
2007,07,13,02,32,0.00
2007,07,13,02,33,0.00
2007,07,13,02,34,0.80
2007,07,13,02,35,0.20
2007,07,13,02,36,0.00
2007,07,13,02,37,0.00
2007,07,13,02,38,0.00
2007,07,13,02,39,0.00
2007,07,13,02,40,0.00
2007,07,13,02,41,0.00
2007,07,13,02,42,0.10
2007,07,13,02,43,0.10
2007,07,13,02,44,0.30
2007,07,13,02,45,0.30
2007,07,13,02,46,0.30
2007,07,13,02,47,2.30
2007,07,13,02,48,0.70
2007,07,13,02,49,0.00
2007,07,13,02,50,0.00
2007,07,13,02,51,0.00
2007,07,13,02,52,0.00
2007,07,13,02,53,0.00
2007,07,13,02,54,0.00
2007,07,13,02,55,0.00
2007,07,13,02,56,0.00
2007,07,13,02,57,0.00
2007,07,13,02,58,0.00
2007,07,13,02,59,0.00
2007,07,13,03,00,0.00
2007,07,13,03,01,0.00
2007,07,13,03,02,0.00
2007,07,13,03,03,0.00
2007,07,13,03,04,0.00
2007,07,13,03,05,0.10
2007,07,13,03,06,0.00
2007,07,13,03,07,0.90
2007,07,13,03,08,0.60
2007,07,13,03,09,4.20
2007,07,13,03,10,3.80
2007,07,13,03,11,3.10
2007,07,13,03,12,0.20
2007,07,13,03,13,0.00
2007,07,13,03,14,0.10
2007,07,13,03,15,0.30
2007,07,13,03,16,3.50
2007,07,13,03,17,5.10
2007,07,13,03,18,4.30
2007,07,13,03,19,1.60
2007,07,13,03,20,7.60
2007,07,13,03,21,1.90
2007,07,13,03,22,3.60
2007,07,13,03,23,3.60
2007,07,13,03,24,8.20
2007,07,13,03,25,9.60
2007,07,13,03,26,6.40
2007,07,13,03,27,3.40
2007,07,13,03,28,2.00
2007,07,13,03,29,4.30
2007,07,13,03,30,6.80
2007,07,13,03,31,6.30
2007,07,13,03,32,3.20
2007,07,13,03,33,1.50
2007,07,13,03,34,1.80
2007,07,13,03,35,0.20
2007,07,13,03,36,0.00
2007,07,13,03,37,0.00
2007,07,13,03,38,0.10
2007,07,13,03,39,0.00
2007,07,13,03,40,0.00
2007,07,13,03,41,0.30
2007,07,13,03,42,1.50
2007,07,13,03,43,1.10
2007,07,13,03,44,0.30
2007,07,13,03,45,0.30
2007,07,13,03,46,0.00
2007,07,13,03,47,0.00
2007,07,13,03,48,0.00
2007,07,13,03,49,0.00
2007,07,13,03,50,0.00
2007,07,13,03,51,0.00
2007,07,13,03,52,0.00
2007,07,13,03,53,0.00
2007,07,13,03,54,0.00
2007,07,13,03,55,0.00
2007,07,13,03,56,0.00
2007,07,13,03,57,0.00
2007,07,13,03,58,0.30
2007,07,13,03,59,0.50
2007,07,13,04,00,1.00
2007,07,13,04,01,1.20
2007,07,13,04,02,1.00
2007,07,13,04,03,1.90
2007,07,13,04,04,7.20
2007,07,13,04,05,6.80
2007,07,13,04,06,4.90
2007,07,13,04,07,2.70
2007,07,13,04,08,5.50
2007,07,13,04,09,3.80
2007,07,13,04,10,15.00
2007,07,13,04,11,38.80
2007,07,13,04,12,40.00
2007,07,13,04,13,15.70
2007,07,13,04,14,5.70
2007,07,13,04,15,8.70
2007,07,13,04,16,1.20
2007,07,13,04,17,5.90
2007,07,13,04,18,14.80
2007,07,13,04,19,20.20
2007,07,13,04,20,7.80
2007,07,13,04,21,3.90
2007,07,13,04,22,6.30
2007,07,13,04,23,3.40
2007,07,13,04,24,7.60
2007,07,13,04,25,8.00
2007,07,13,04,26,4.90
2007,07,13,04,27,4.70
2007,07,13,04,28,2.80
2007,07,13,04,29,4.70
2007,07,13,04,30,7.00
2007,07,13,04,31,4.00
2007,07,13,04,32,1.90
2007,07,13,04,33,0.40
2007,07,13,04,34,0.30
2007,07,13,04,35,1.00
2007,07,13,04,36,1.50
2007,07,13,04,37,7.80
2007,07,13,04,38,5.70
2007,07,13,04,39,0.90
2007,07,13,04,40,3.80
2007,07,13,04,41,3.60
2007,07,13,04,42,0.30
2007,07,13,04,43,1.70
2007,07,13,04,44,2.60
2007,07,13,04,45,0.80
2007,07,13,04,46,0.20
2007,07,13,04,47,0.10
2007,07,13,04,48,1.00
2007,07,13,04,49,0.00
2007,07,13,04,50,1.10
2007,07,13,04,51,0.00
2007,07,13,04,52,0.00
2007,07,13,04,53,0.00
2007,07,13,04,54,2.70
2007,07,13,04,55,7.60
2007,07,13,04,56,8.20
2007,07,13,04,57,6.00
2007,07,13,04,58,0.80
2007,07,13,04,59,0.70
2007,07,13,05,00,1.60
2007,07,13,05,01,1.20
2007,07,13,05,02,0.60
2007,07,13,05,03,0.20
2007,07,13,05,04,0.00
2007,07,13,05,05,0.00
2007,07,13,05,06,0.00
2007,07,13,05,07,0.00
2007,07,13,05,08,0.00
2007,07,13,05,09,0.00
2007,07,13,05,10,0.00
2007,07,13,05,11,0.10
2007,07,13,05,12,0.00
2007,07,13,05,13,0.00
2007,07,13,05,14,0.00
2007,07,13,05,15,0.00
2007,07,13,05,16,0.00
2007,07,13,05,17,0.10
2007,07,13,05,18,1.40
2007,07,13,05,19,1.50
2007,07,13,05,20,2.90
2007,07,13,05,21,1.20
2007,07,13,05,22,0.10
2007,07,13,05,23,0.10
2007,07,13,05,24,0.00
2007,07,13,05,25,0.00
2007,07,13,05,26,0.00
2007,07,13,05,27,0.60
2007,07,13,05,28,0.50
2007,07,13,05,29,0.10
2007,07,13,05,30,0.00
2007,07,13,05,31,0.20
2007,07,13,05,32,0.00
2007,07,13,05,33,0.00
2007,07,13,05,34,0.30
2007,07,13,05,35,0.10
2007,07,13,05,36,0.00
2007,07,13,05,37,0.00
2007,07,13,05,38,0.00
2007,07,13,05,39,0.40
2007,07,13,05,40,0.90
2007,07,13,05,41,0.00
2007,07,13,05,42,0.00
2007,07,13,05,43,0.00
2007,07,13,05,44,0.00
2007,07,13,05,45,0.40
2007,07,13,05,46,0.80
2007,07,13,05,47,0.10
2007,07,13,05,48,0.00
2007,07,13,05,49,0.00
2007,07,13,05,50,0.10
2007,07,13,05,51,1.20
2007,07,13,05,52,0.90
2007,07,13,05,53,0.60
2007,07,13,05,54,0.30
2007,07,13,05,55,0.10
2007,07,13,05,56,0.00
2007,07,13,05,57,0.00
2007,07,13,05,58,0.00
2007,07,13,05,59,0.00
2007,07,13,06,00,0.10
2007,07,13,06,01,0.00
2007,07,13,06,02,0.00
2007,07,13,06,03,0.00
2007,07,13,06,04,0.00
2007,07,13,06,05,0.00
2007,07,13,06,06,0.00
2007,07,13,06,07,0.00
2007,07,13,06,08,0.00
2007,07,13,06,09,0.00
2007,07,13,06,10,0.00
2007,07,13,06,11,2.60
2007,07,13,06,12,3.50
2007,07,13,06,13,0.40
2007,07,13,06,14,3.60
2007,07,13,06,15,3.40
2007,07,13,06,16,3.40
2007,07,13,06,17,3.10
2007,07,13,06,18,2.70
2007,07,13,06,19,3.40
2007,07,13,06,20,3.80
2007,07,13,06,21,1.40
2007,07,13,06,22,0.10
2007,07,13,06,23,0.00
2007,07,13,06,24,0.00
2007,07,13,06,25,0.00
2007,07,13,06,26,0.00
2007,07,13,06,27,0.00
2007,07,13,06,28,0.00
2007,07,13,06,29,0.00
2007,07,13,06,30,0.10
2007,07,13,06,31,0.00
2007,07,13,06,32,0.00
2007,07,13,06,33,0.40
2007,07,13,06,34,0.30
2007,07,13,06,35,0.00
2007,07,13,06,36,1.30
2007,07,13,06,37,0.20
2007,07,13,06,38,1.10
2007,07,13,06,39,0.60
2007,07,13,06,40,0.00
2007,07,13,06,41,0.00
2007,07,13,06,42,0.00
2007,07,13,06,43,0.00
2007,07,13,06,44,0.00
2007,07,13,06,45,0.50
2007,07,13,06,46,0.80
2007,07,13,06,47,0.80
2007,07,13,06,48,0.00
2007,07,13,06,49,0.00
2007,07,13,06,50,0.00
2007,07,13,06,51,0.00
2007,07,13,06,52,0.00
2007,07,13,06,53,0.00
2007,07,13,06,54,0.00
2007,07,13,06,55,0.00
2007,07,13,06,56,0.00
2007,07,13,06,57,0.00
2007,07,13,06,58,0.20
2007,07,13,06,59,0.00
2007,07,13,07,00,0.00
2007,07,13,07,01,0.10
2007,07,13,07,02,0.70
2007,07,13,07,03,0.90
2007,07,13,07,04,0.00
2007,07,13,07,05,0.00
2007,07,13,07,06,1.00
2007,07,13,07,07,0.80
2007,07,13,07,08,1.70
2007,07,13,07,09,3.00
2007,07,13,07,10,1.30
2007,07,13,07,11,0.70
2007,07,13,07,12,0.30
2007,07,13,07,13,0.00
2007,07,13,07,14,0.20
2007,07,13,07,15,2.50
2007,07,13,07,16,0.50
2007,07,13,07,17,2.60
2007,07,13,07,18,1.40
2007,07,13,07,19,0.60
2007,07,13,07,20,0.10
2007,07,13,07,21,0.00
2007,07,13,07,22,0.00
2007,07,13,07,23,0.40
2007,07,13,07,24,0.60
2007,07,13,07,25,0.00
2007,07,13,07,26,0.00
2007,07,13,07,27,0.00
2007,07,13,07,28,0.20
2007,07,13,07,29,0.10
2007,07,13,07,30,0.20
2007,07,13,07,31,0.00
2007,07,13,07,32,0.00
2007,07,13,07,33,0.00
2007,07,13,07,34,0.00
2007,07,13,07,35,0.00
2007,07,13,07,36,0.10
2007,07,13,07,37,0.20
2007,07,13,07,38,1.40
2007,07,13,07,39,2.70
2007,07,13,07,40,4.60
2007,07,13,07,41,3.40
2007,07,13,07,42,2.00
2007,07,13,07,43,1.40
2007,07,13,07,44,0.70
2007,07,13,07,45,0.40
2007,07,13,07,46,0.80
2007,07,13,07,47,0.60
2007,07,13,07,48,0.40
2007,07,13,07,49,0.00
2007,07,13,07,50,0.70
2007,07,13,07,51,0.50
2007,07,13,07,52,0.30
2007,07,13,07,53,0.00
2007,07,13,07,54,1.20
2007,07,13,07,55,3.20
2007,07,13,07,56,1.20
2007,07,13,07,57,2.50
2007,07,13,07,58,4.70
2007,07,13,07,59,1.60
2007,07,13,08,00,1.20
2007,07,13,08,01,5.30
2007,07,13,08,02,4.10
2007,07,13,08,03,9.60
2007,07,13,08,04,6.00
2007,07,13,08,05,2.80
2007,07,13,08,06,3.10
2007,07,13,08,07,7.00
2007,07,13,08,08,3.50
2007,07,13,08,09,7.70
2007,07,13,08,10,7.70
2007,07,13,08,11,6.00
2007,07,13,08,12,7.80
2007,07,13,08,13,9.00
2007,07,13,08,14,6.10
2007,07,13,08,15,6.00
2007,07,13,08,16,7.10
2007,07,13,08,17,6.10
2007,07,13,08,18,7.20
2007,07,13,08,19,4.60
2007,07,13,08,20,5.10
2007,07,13,08,21,3.50
2007,07,13,08,22,1.40
2007,07,13,08,23,0.10
2007,07,13,08,24,1.20
2007,07,13,08,25,1.80
2007,07,13,08,26,3.10
2007,07,13,08,27,1.80
2007,07,13,08,28,3.70
2007,07,13,08,29,4.40
2007,07,13,08,30,3.70
2007,07,13,08,31,2.60
2007,07,13,08,32,0.80
2007,07,13,08,33,2.80
2007,07,13,08,34,3.70
2007,07,13,08,35,3.90
2007,07,13,08,36,2.10
2007,07,13,08,37,0.90
2007,07,13,08,38,0.10
2007,07,13,08,39,0.80
2007,07,13,08,40,1.40
2007,07,13,08,41,1.90
2007,07,13,08,42,5.30
2007,07,13,08,43,3.50
2007,07,13,08,44,0.20
2007,07,13,08,45,0.00
2007,07,13,08,46,0.70
2007,07,13,08,47,5.60
2007,07,13,08,48,4.30
2007,07,13,08,49,5.10
2007,07,13,08,50,4.00
2007,07,13,08,51,1.30
2007,07,13,08,52,1.90
2007,07,13,08,53,3.00
2007,07,13,08,54,6.60
2007,07,13,08,55,2.20
2007,07,13,08,56,0.90
2007,07,13,08,57,0.70
2007,07,13,08,58,0.20
2007,07,13,08,59,3.10
2007,07,13,09,00,5.00
2007,07,13,09,01,8.40
2007,07,13,09,02,6.00
2007,07,13,09,03,1.20
2007,07,13,09,04,0.10
2007,07,13,09,05,4.30
2007,07,13,09,06,5.70
2007,07,13,09,07,4.20
2007,07,13,09,08,5.30
2007,07,13,09,09,6.10
2007,07,13,09,10,1.40
2007,07,13,09,11,6.10
2007,07,13,09,12,3.70
2007,07,13,09,13,3.90
2007,07,13,09,14,4.40
2007,07,13,09,15,1.70
2007,07,13,09,16,0.50
2007,07,13,09,17,4.00
2007,07,13,09,18,3.30
2007,07,13,09,19,9.00
2007,07,13,09,20,6.80
2007,07,13,09,21,2.10
2007,07,13,09,22,0.70
2007,07,13,09,23,6.50
2007,07,13,09,24,7.00
2007,07,13,09,25,7.70
2007,07,13,09,26,7.60
2007,07,13,09,27,2.40
2007,07,13,09,28,2.70
2007,07,13,09,29,3.50
2007,07,13,09,30,1.10
2007,07,13,09,31,3.50
2007,07,13,09,32,1.30
2007,07,13,09,33,1.80
2007,07,13,09,34,0.10
2007,07,13,09,35,0.40
2007,07,13,09,36,0.40
2007,07,13,09,37,5.90
2007,07,13,09,38,6.40
2007,07,13,09,39,1.70
2007,07,13,09,40,2.20
2007,07,13,09,41,1.70
2007,07,13,09,42,1.50
2007,07,13,09,43,3.20
2007,07,13,09,44,2.40
2007,07,13,09,45,3.00
2007,07,13,09,46,1.30
2007,07,13,09,47,0.70
2007,07,13,09,48,3.40
2007,07,13,09,49,3.00
2007,07,13,09,50,1.30
2007,07,13,09,51,1.90
2007,07,13,09,52,0.20
2007,07,13,09,53,1.20
2007,07,13,09,54,1.30
2007,07,13,09,55,3.30
2007,07,13,09,56,0.90
2007,07,13,09,57,2.50
2007,07,13,09,58,6.60
2007,07,13,09,59,5.70
2007,07,13,10,00,6.20
2007,07,13,10,01,6.40
2007,07,13,10,02,9.40
2007,07,13,10,03,8.00
2007,07,13,10,04,4.20
2007,07,13,10,05,7.20
2007,07,13,10,06,5.80
2007,07,13,10,07,7.30
2007,07,13,10,08,10.10
2007,07,13,10,09,8.10
2007,07,13,10,10,9.70
2007,07,13,10,11,8.30
2007,07,13,10,12,7.20
2007,07,13,10,13,7.70
2007,07,13,10,14,6.80
2007,07,13,10,15,8.00
2007,07,13,10,16,6.30
2007,07,13,10,17,8.40
2007,07,13,10,18,9.20
2007,07,13,10,19,9.00
2007,07,13,10,20,4.60
2007,07,13,10,21,1.40
2007,07,13,10,22,4.10
2007,07,13,10,23,6.10
2007,07,13,10,24,6.70
2007,07,13,10,25,3.90
2007,07,13,10,26,3.50
2007,07,13,10,27,4.90
2007,07,13,10,28,3.60
2007,07,13,10,29,1.90
2007,07,13,10,30,5.60
2007,07,13,10,31,3.80
2007,07,13,10,32,2.30
2007,07,13,10,33,0.30
2007,07,13,10,34,2.90
2007,07,13,10,35,2.30
2007,07,13,10,36,0.60
2007,07,13,10,37,2.50
2007,07,13,10,38,5.50
2007,07,13,10,39,3.70
2007,07,13,10,40,2.70
2007,07,13,10,41,1.60
2007,07,13,10,42,1.80
2007,07,13,10,43,1.50
2007,07,13,10,44,3.90
2007,07,13,10,45,4.60
2007,07,13,10,46,1.80
2007,07,13,10,47,1.40
2007,07,13,10,48,6.50
2007,07,13,10,49,6.80
2007,07,13,10,50,10.40
2007,07,13,10,51,8.00
2007,07,13,10,52,7.70
2007,07,13,10,53,6.50
2007,07,13,10,54,5.80
2007,07,13,10,55,7.70
2007,07,13,10,56,5.70
2007,07,13,10,57,7.60
2007,07,13,10,58,7.90
2007,07,13,10,59,1.70
2007,07,13,11,00,2.40
2007,07,13,11,01,5.60
2007,07,13,11,02,5.40
2007,07,13,11,03,1.90
2007,07,13,11,04,1.50
2007,07,13,11,05,4.40
2007,07,13,11,06,4.60
2007,07,13,11,07,3.70
2007,07,13,11,08,3.70
2007,07,13,11,09,4.50
2007,07,13,11,10,9.70
2007,07,13,11,11,7.20
2007,07,13,11,12,3.60
2007,07,13,11,13,3.30
2007,07,13,11,14,2.30
2007,07,13,11,15,7.20
2007,07,13,11,16,6.60
2007,07,13,11,17,4.20
2007,07,13,11,18,4.40
2007,07,13,11,19,5.10
2007,07,13,11,20,8.30
2007,07,13,11,21,3.20
2007,07,13,11,22,12.00
2007,07,13,11,23,11.80
2007,07,13,11,24,5.90
2007,07,13,11,25,3.30
2007,07,13,11,26,7.30
2007,07,13,11,27,5.80
2007,07,13,11,28,9.80
2007,07,13,11,29,10.80
2007,07,13,11,30,7.00
2007,07,13,11,31,4.70
2007,07,13,11,32,5.70
2007,07,13,11,33,4.50
2007,07,13,11,34,6.20
2007,07,13,11,35,4.70
2007,07,13,11,36,6.20
2007,07,13,11,37,10.60
2007,07,13,11,38,10.80
2007,07,13,11,39,7.20
2007,07,13,11,40,8.90
2007,07,13,11,41,4.30
2007,07,13,11,42,7.00
2007,07,13,11,43,8.20
2007,07,13,11,44,10.90
2007,07,13,11,45,13.70
2007,07,13,11,46,12.60
2007,07,13,11,47,12.20
2007,07,13,11,48,7.80
2007,07,13,11,49,5.60
2007,07,13,11,50,1.90
2007,07,13,11,51,2.60
2007,07,13,11,52,4.70
2007,07,13,11,53,5.00
2007,07,13,11,54,2.10
2007,07,13,11,55,1.30
2007,07,13,11,56,2.10
2007,07,13,11,57,3.50
2007,07,13,11,58,1.30
2007,07,13,11,59,3.10
2007,07,13,12,00,1.50
2007,07,13,12,01,2.40
2007,07,13,12,02,2.70
2007,07,13,12,03,2.60
2007,07,13,12,04,3.10
2007,07,13,12,05,1.90
2007,07,13,12,06,3.60
2007,07,13,12,07,6.00
2007,07,13,12,08,4.80
2007,07,13,12,09,2.90
2007,07,13,12,10,1.40
2007,07,13,12,11,3.20
2007,07,13,12,12,7.70
2007,07,13,12,13,8.10
2007,07,13,12,14,6.90
2007,07,13,12,15,7.40
2007,07,13,12,16,7.70
2007,07,13,12,17,5.60
2007,07,13,12,18,2.90
2007,07,13,12,19,4.50
2007,07,13,12,20,3.50
2007,07,13,12,21,6.30
2007,07,13,12,22,1.40
2007,07,13,12,23,1.50
2007,07,13,12,24,0.70
2007,07,13,12,25,5.80
2007,07,13,12,26,6.00
2007,07,13,12,27,2.70
2007,07,13,12,28,5.20
2007,07,13,12,29,4.50
2007,07,13,12,30,2.60
2007,07,13,12,31,2.80
2007,07,13,12,32,2.90
2007,07,13,12,33,7.30
2007,07,13,12,34,4.60
2007,07,13,12,35,4.20
2007,07,13,12,36,0.70
2007,07,13,12,37,2.80
2007,07,13,12,38,5.80
2007,07,13,12,39,3.00
2007,07,13,12,40,6.60
2007,07,13,12,41,7.30
2007,07,13,12,42,3.00
2007,07,13,12,43,1.50
2007,07,13,12,44,0.80
2007,07,13,12,45,2.20
2007,07,13,12,46,0.70
2007,07,13,12,47,13.90
2007,07,13,12,48,5.20
2007,07,13,12,49,5.60
2007,07,13,12,50,9.30
2007,07,13,12,51,1.10
2007,07,13,12,52,2.10
2007,07,13,12,53,6.00
2007,07,13,12,54,7.20
2007,07,13,12,55,9.70
2007,07,13,12,56,8.80
2007,07,13,12,57,7.90
2007,07,13,12,58,10.20
2007,07,13,12,59,14.20
2007,07,13,13,00,13.00
2007,07,13,13,01,12.70
2007,07,13,13,02,16.00
2007,07,13,13,03,18.00
2007,07,13,13,04,18.90
2007,07,13,13,05,18.80
2007,07,13,13,06,13.50
2007,07,13,13,07,19.30
2007,07,13,13,08,14.20
2007,07,13,13,09,15.80
2007,07,13,13,10,14.50
2007,07,13,13,11,15.50
2007,07,13,13,12,16.10
2007,07,13,13,13,16.10
2007,07,13,13,14,16.10
2007,07,13,13,15,16.10
2007,07,13,13,16,13.00
2007,07,13,13,17,14.70
2007,07,13,13,18,19.00
2007,07,13,13,19,19.90
2007,07,13,13,20,18.60
2007,07,13,13,21,16.90
2007,07,13,13,22,15.10
2007,07,13,13,23,15.90
2007,07,13,13,24,20.40
2007,07,13,13,25,15.70
2007,07,13,13,26,13.40
2007,07,13,13,27,17.60
2007,07,13,13,28,18.80
2007,07,13,13,29,16.10
2007,07,13,13,30,13.30
2007,07,13,13,31,17.10
2007,07,13,13,32,15.30
2007,07,13,13,33,17.90
2007,07,13,13,34,18.10
2007,07,13,13,35,12.50
2007,07,13,13,36,15.80
2007,07,13,13,37,12.30
2007,07,13,13,38,11.40
2007,07,13,13,39,12.20
2007,07,13,13,40,11.00
2007,07,13,13,41,15.90
2007,07,13,13,42,13.00
2007,07,13,13,43,15.80
2007,07,13,13,44,12.00
2007,07,13,13,45,9.60
2007,07,13,13,46,11.20
2007,07,13,13,47,16.90
2007,07,13,13,48,14.20
2007,07,13,13,49,15.30
2007,07,13,13,50,17.60
2007,07,13,13,51,16.50
2007,07,13,13,52,15.40
2007,07,13,13,53,10.50
2007,07,13,13,54,12.50
2007,07,13,13,55,18.90
2007,07,13,13,56,14.90
2007,07,13,13,57,17.40
2007,07,13,13,58,13.50
2007,07,13,13,59,11.10
2007,07,13,14,00,10.10
2007,07,13,14,01,11.70
2007,07,13,14,02,9.70
2007,07,13,14,03,7.20
2007,07,13,14,04,14.10
2007,07,13,14,05,14.90
2007,07,13,14,06,16.90
2007,07,13,14,07,13.80
2007,07,13,14,08,13.90
2007,07,13,14,09,16.70
2007,07,13,14,10,16.50
2007,07,13,14,11,17.50
2007,07,13,14,12,19.50
2007,07,13,14,13,13.20
2007,07,13,14,14,15.60
2007,07,13,14,15,23.50
2007,07,13,14,16,19.60
2007,07,13,14,17,20.00
2007,07,13,14,18,16.50
2007,07,13,14,19,12.70
2007,07,13,14,20,9.70
2007,07,13,14,21,9.70
2007,07,13,14,22,14.90
2007,07,13,14,23,14.40
2007,07,13,14,24,14.90
2007,07,13,14,25,11.00
2007,07,13,14,26,8.20
2007,07,13,14,27,9.30
2007,07,13,14,28,8.60
2007,07,13,14,29,13.50
2007,07,13,14,30,12.80
2007,07,13,14,31,9.80
2007,07,13,14,32,8.50
2007,07,13,14,33,9.30
2007,07,13,14,34,10.30
2007,07,13,14,35,15.90
2007,07,13,14,36,12.90
2007,07,13,14,37,9.90
2007,07,13,14,38,8.10
2007,07,13,14,39,5.60
2007,07,13,14,40,8.60
2007,07,13,14,41,10.30
2007,07,13,14,42,8.10
2007,07,13,14,43,8.60
2007,07,13,14,44,13.00
2007,07,13,14,45,14.60
2007,07,13,14,46,16.50
2007,07,13,14,47,20.50
2007,07,13,14,48,14.40
2007,07,13,14,49,14.10
2007,07,13,14,50,14.90
2007,07,13,14,51,14.60
2007,07,13,14,52,11.30
2007,07,13,14,53,10.40
2007,07,13,14,54,9.10
2007,07,13,14,55,7.90
2007,07,13,14,56,8.40
2007,07,13,14,57,11.30
2007,07,13,14,58,9.00
2007,07,13,14,59,14.50
2007,07,13,15,00,14.20
2007,07,13,15,01,17.10
2007,07,13,15,02,20.40
2007,07,13,15,03,8.80
2007,07,13,15,04,13.70
2007,07,13,15,05,13.40
2007,07,13,15,06,16.30
2007,07,13,15,07,14.20
2007,07,13,15,08,19.00
2007,07,13,15,09,19.70
2007,07,13,15,10,17.40
2007,07,13,15,11,19.40
2007,07,13,15,12,13.40
2007,07,13,15,13,13.60
2007,07,13,15,14,13.80
2007,07,13,15,15,12.60
2007,07,13,15,16,18.80
2007,07,13,15,17,17.90
2007,07,13,15,18,19.10
2007,07,13,15,19,15.40
2007,07,13,15,20,11.10
2007,07,13,15,21,15.60
2007,07,13,15,22,18.80
2007,07,13,15,23,17.90
2007,07,13,15,24,17.70
2007,07,13,15,25,17.30
2007,07,13,15,26,18.50
2007,07,13,15,27,13.80
2007,07,13,15,28,9.60
2007,07,13,15,29,13.30
2007,07,13,15,30,17.30
2007,07,13,15,31,12.00
2007,07,13,15,32,18.90
2007,07,13,15,33,19.40
2007,07,13,15,34,17.10
2007,07,13,15,35,14.50
2007,07,13,15,36,17.30
2007,07,13,15,37,13.40
2007,07,13,15,38,15.00
2007,07,13,15,39,14.60
2007,07,13,15,40,17.00
2007,07,13,15,41,20.40
2007,07,13,15,42,20.50
2007,07,13,15,43,18.10
2007,07,13,15,44,13.30
2007,07,13,15,45,18.00
2007,07,13,15,46,16.40
2007,07,13,15,47,12.50
2007,07,13,15,48,16.20
2007,07,13,15,49,17.60
2007,07,13,15,50,14.60
2007,07,13,15,51,11.60
2007,07,13,15,52,14.90
2007,07,13,15,53,6.10
2007,07,13,15,54,15.40
2007,07,13,15,55,19.60
2007,07,13,15,56,17.40
2007,07,13,15,57,10.90
2007,07,13,15,58,18.00
2007,07,13,15,59,12.60
2007,07,13,16,00,14.70
2007,07,13,16,01,13.40
2007,07,13,16,02,15.90
2007,07,13,16,03,15.90
2007,07,13,16,04,16.70
2007,07,13,16,05,15.10
2007,07,13,16,06,13.50
2007,07,13,16,07,16.60
2007,07,13,16,08,15.30
2007,07,13,16,09,14.30
2007,07,13,16,10,11.10
2007,07,13,16,11,16.20
2007,07,13,16,12,18.30
2007,07,13,16,13,14.60
2007,07,13,16,14,15.60
2007,07,13,16,15,16.80
2007,07,13,16,16,17.90
2007,07,13,16,17,20.40
2007,07,13,16,18,14.10
2007,07,13,16,19,14.30
2007,07,13,16,20,13.40
2007,07,13,16,21,8.00
2007,07,13,16,22,4.70
2007,07,13,16,23,8.60
2007,07,13,16,24,7.10
2007,07,13,16,25,6.70
2007,07,13,16,26,5.10
2007,07,13,16,27,6.30
2007,07,13,16,28,15.10
2007,07,13,16,29,10.40
2007,07,13,16,30,6.20
2007,07,13,16,31,11.10
2007,07,13,16,32,12.90
2007,07,13,16,33,7.90
2007,07,13,16,34,8.40
2007,07,13,16,35,9.90
2007,07,13,16,36,10.10
2007,07,13,16,37,10.40
2007,07,13,16,38,11.60
2007,07,13,16,39,13.20
2007,07,13,16,40,11.80
2007,07,13,16,41,7.70
2007,07,13,16,42,9.00
2007,07,13,16,43,8.60
2007,07,13,16,44,9.70
2007,07,13,16,45,7.30
2007,07,13,16,46,5.80
2007,07,13,16,47,4.30
2007,07,13,16,48,6.30
2007,07,13,16,49,14.00
2007,07,13,16,50,9.50
2007,07,13,16,51,18.20
2007,07,13,16,52,15.80
2007,07,13,16,53,17.20
2007,07,13,16,54,10.90
2007,07,13,16,55,11.90
2007,07,13,16,56,15.80
2007,07,13,16,57,14.60
2007,07,13,16,58,14.50
2007,07,13,16,59,16.20
2007,07,13,17,00,15.50
2007,07,13,17,01,19.00
2007,07,13,17,02,15.70
2007,07,13,17,03,11.90
2007,07,13,17,04,13.30
2007,07,13,17,05,10.80
2007,07,13,17,06,14.20
2007,07,13,17,07,9.90
2007,07,13,17,08,16.70
2007,07,13,17,09,13.60
2007,07,13,17,10,15.20
2007,07,13,17,11,14.30
2007,07,13,17,12,8.20
2007,07,13,17,13,9.90
2007,07,13,17,14,13.00
2007,07,13,17,15,8.00
2007,07,13,17,16,14.60
2007,07,13,17,17,9.30
2007,07,13,17,18,11.80
2007,07,13,17,19,11.40
2007,07,13,17,20,13.00
2007,07,13,17,21,10.10
2007,07,13,17,22,9.10
2007,07,13,17,23,4.00
2007,07,13,17,24,5.90
2007,07,13,17,25,11.60
2007,07,13,17,26,8.10
2007,07,13,17,27,9.40
2007,07,13,17,28,6.60
2007,07,13,17,29,8.80
2007,07,13,17,30,6.40
2007,07,13,17,31,7.60
2007,07,13,17,32,10.50
2007,07,13,17,33,10.50
2007,07,13,17,34,7.50
2007,07,13,17,35,9.70
2007,07,13,17,36,14.70
2007,07,13,17,37,8.50
2007,07,13,17,38,9.30
2007,07,13,17,39,10.10
2007,07,13,17,40,11.00
2007,07,13,17,41,9.40
2007,07,13,17,42,12.80
2007,07,13,17,43,9.20
2007,07,13,17,44,10.70
2007,07,13,17,45,3.40
2007,07,13,17,46,3.40
2007,07,13,17,47,6.40
2007,07,13,17,48,5.90
2007,07,13,17,49,8.00
2007,07,13,17,50,4.50
2007,07,13,17,51,2.70
2007,07,13,17,52,10.60
2007,07,13,17,53,10.00
2007,07,13,17,54,8.40
2007,07,13,17,55,6.70